Satellite: RS-30
Catalog number: 32953
Epoch time:      10273.65072943
Element set:      90
Inclination:      082.5048 deg
RA of node:       324.1077 deg
Eccentricity:    0.0017736
Arg of perigee:   229.7441 deg
Mean anomaly:     130.2090 deg
Mean motion:   12.43008021 rev/day
Decay rate:        1.0e-07 rev/day^2
Epoch rev:           10684
Checksum:              254

Satellite: TACSAT-3
Catalog number: 35001
Epoch time:      10272.55644394
Element set:    0408
Inclination:      040.4562 deg
RA of node:       306.7240 deg
Eccentricity:    0.0021019
Arg of perigee:   063.8756 deg
Mean anomaly:     296.4220 deg
Mean motion:   15.42869184 rev/day
Decay rate:      7.552e-05 rev/day^2
Epoch rev:           07675
Checksum:              293

Satellite: PHARMSAT
Catalog number: 35002
Epoch time:      10272.47811859
Element set:     370
Inclination:      040.4706 deg
RA of node:       304.8716 deg
Eccentricity:    0.0023842
Arg of perigee:   066.5413 deg
Mean anomaly:     293.7906 deg
Mean motion:   15.43274724 rev/day
Decay rate:      6.386e-05 rev/day^2
Epoch rev:            7676
Checksum:              301

Satellite: HAWKSAT1
Catalog number: 35003
Epoch time:      10272.46795593
Element set:     401
Inclination:      040.4598 deg
RA of node:       296.2392 deg
Eccentricity:    0.0021558
Arg of perigee:   087.2326 deg
Mean anomaly:     273.0956 deg
Mean motion:   15.47511605 rev/day
Decay rate:     1.5177e-04 rev/day^2
Epoch rev:            7686
Checksum:              311

Satellite: CP6
Catalog number: 35004
Epoch time:      10272.46087459
Element set:     397
Inclination:      040.4601 deg
RA of node:       294.3942 deg
Eccentricity:    0.0020573
Arg of perigee:   092.2492 deg
Mean anomaly:     268.0682 deg
Mean motion:   15.48785281 rev/day
Decay rate:     1.8639e-04 rev/day^2
Epoch rev:            7687
Checksum:              328

Satellite: AEROCUB3
Catalog number: 35005
Epoch time:      10273.47735782
Element set:     468
Inclination:      040.4682 deg
RA of node:       278.4571 deg
Eccentricity:    0.0019824
Arg of perigee:   126.4765 deg
Mean anomaly:     233.7887 deg
Mean motion:   15.60378511 rev/day
Decay rate:     8.1235e-04 rev/day^2
Epoch rev:            7714
Checksum:              323

Satellite: CASTOR
Catalog number: 35694
Epoch time:      10230.44082147
Element set:     655
Inclination:      051.5930 deg
RA of node:       222.0149 deg
Eccentricity:    0.0004218
Arg of perigee:   308.0851 deg
Mean anomaly:     053.0105 deg
Mean motion:   16.48877011 rev/day
Decay rate:   7.179566e-02 rev/day^2
Epoch rev:            6110
Checksum:              273

Satellite: METEOR-M
Catalog number: 35865
Epoch time:      10273.69172490
Element set:     702
Inclination:      098.7460 deg
RA of node:       326.6728 deg
Eccentricity:    0.0003356
Arg of perigee:   058.8938 deg
Mean anomaly:     301.2550 deg
Mean motion:   14.21831794 rev/day
Decay rate:       1.76e-06 rev/day^2
Epoch rev:            5371
Checksum:              309

Satellite: RS-38
Catalog number: 35869
Epoch time:      10273.79242652
Element set:     713
Inclination:      098.7452 deg
RA of node:       326.8123 deg
Eccentricity:    0.0005437
Arg of perigee:   063.0843 deg
Mean anomaly:     297.0870 deg
Mean motion:   14.21989635 rev/day
Decay rate:       1.77e-06 rev/day^2
Epoch rev:            5373
Checksum:              330

/EX




More information about the Keps mailing list